Blackpool, United Kingdom

10:40 PM BST on July 25, 2017 (GMT +0100)
Blackpool

Weather History for EGNH - April, 2014

Change the Weather History Date:

Tuesday, April 1, 2014

  Actual Average Record
Temperature  
Mean Temperature 50 °F -  
Max Temperature 53 °F 52 °F 68 °F (1999)
Min Temperature 46 °F 41 °F 28 °F (2013)
Degree Days  
Heating Degree Days 16    
Moisture  
Dew Point 46 °F    
Average Humidity 88    
Maximum Humidity 100    
Minimum Humidity 68    
Precipitation  
Precipitation 0.00 in - - ()
Sea Level Pressure  
Sea Level Pressure 29.84 in    
Wind  
Wind Speed 5 mph ()    
Max Wind Speed 12 mph    
Max Gust Speed -    
Visibility 5.8 miles    
Events      
Averages and records for this station are not official NWS values.
T = Trace of Precipitation, MM = Missing Value Source: Averaged Metar Reports

Daily Weather History Graph

Daily Weather History Graph

Search for Another Location

Airport or City:

Trip Planner

Search our weather history database for the weather conditions in past years. The results will help you decide how hot, cold, wet, or windy it might be!

Date:

Astronomy

Apr. 01, 2014 Rise Set
Actual Time 6:45 AM BST 7:47 PM BST
Civil Twilight 6:09 AM BST 8:23 PM BST
Nautical Twilight 5:26 AM BST 9:07 PM BST
Astronomical Twilight 4:39 AM BST 9:54 PM BST
Moon 7:23 AM BST (4/1) 10:15 PM BST (4/1)
Length of Visible Light 14h 13m
Length of Day
13h 01m
Waxing Crescent, 4% of the Moon is Illuminated
Apr 1
Waxing Crescent
Apr 7
First Quarter
Apr 15
Full
Apr 22
Last Quarter
Apr 29
New

Hourly Weather History & Observations

Time (BST) Temp. Windchill Dew Point Humidity Pressure Visibility Wind Dir Wind Speed Gust Speed Precip Events Conditions
12:00 AM 48 °F - 47 °F 97%  in - West 6.9 mph - -  
1:00 AM 49 °F - 48 °F 95%  in - NE 4.6 mph - -  
2:00 AM 48 °F - 48 °F 98%  in - East 5.8 mph - -  
3:00 AM 47 °F - 47 °F 100%  in - ESE 4.6 mph - -  
4:00 AM 47 °F - 47 °F 100%  in - ENE 1.2 mph - -  
5:00 AM 47 °F - 47 °F 100%  in - East 1.2 mph - -  
6:00 AM 47 °F - 47 °F 99%  in - SSE 1.2 mph - -  
6:20 AM 48.2 °F - 46.4 °F 93% 29.83 in 4.3 mi South 3.5 mph - N/A   Mostly Cloudy
6:50 AM 46.4 °F 44.3 °F 46.4 °F 100% 29.83 in 4.3 mi SSW 4.6 mph - N/A   Scattered Clouds
7:00 AM 47 °F - 46 °F 97%  in - SW 4.6 mph - -  
7:50 AM 46.4 °F 43.5 °F 46.4 °F 100% 29.86 in 6.2 mi WSW 5.8 mph - N/A   Scattered Clouds
8:00 AM 46 °F - 46 °F 100%  in - West 9.2 mph - -  
8:20 AM 46.4 °F 41.1 °F 44.6 °F 93% 29.86 in 1.2 mi West 11.5 mph - N/A   Mostly Cloudy
8:50 AM 46.4 °F 42.4 °F 46.4 °F 100% 29.86 in 6.2 mi West 8.1 mph - N/A   Mostly Cloudy
9:00 AM 46 °F - 46 °F 100%  in - WNW 8.1 mph - -  
9:20 AM 48.2 °F - 48.2 °F 100% 29.86 in 5.6 mi West 6.9 mph - N/A   Mostly Cloudy
9:50 AM 48.2 °F - 46.4 °F 93% 29.86 in 6.2 mi West 6.9 mph - N/A   Mostly Cloudy
10:00 AM 47 °F - 46 °F 96%  in - West 8.1 mph - -  
10:20 AM 48.2 °F - 46.4 °F 93% 29.89 in 6.2 mi Variable 3.5 mph - N/A   Scattered Clouds
10:50 AM 48.2 °F - 48.2 °F 100% 29.89 in 6.2 mi West 6.9 mph - N/A   Mostly Cloudy
11:00 AM 48 °F - 45 °F 86%  in - West 6.9 mph - -  
11:20 AM 48.2 °F - 46.4 °F 93% 29.89 in 6.2 mi West 4.6 mph - N/A   Mostly Cloudy
11:50 AM 50.0 °F - 46.4 °F 87% 29.86 in 6.2 mi NW 5.8 mph - N/A   Mostly Cloudy
12:00 PM 48 °F - 45 °F 87%  in - NNW 6.9 mph - -  
12:20 PM 48.2 °F - 46.4 °F 93% 29.86 in 6.2 mi NW 4.6 mph - N/A   Mostly Cloudy
12:50 PM 50.0 °F - 46.4 °F 87% 29.86 in 6.2 mi Variable 3.5 mph - N/A   Scattered Clouds
1:00 PM 48 °F - 44 °F 83%  in - WNW 4.6 mph - -  
1:20 PM 50.0 °F - 46.4 °F 87% 29.86 in 6.2 mi NW 4.6 mph - N/A   Partly Cloudy
1:50 PM 50.0 °F - 46.4 °F 87% 29.86 in 6.2 mi WNW 5.8 mph - N/A   Scattered Clouds
2:00 PM 49 °F - 46 °F 83%  in - WNW 6.9 mph - -  
2:20 PM 50.0 °F - 46.4 °F 87% 29.86 in 6.2 mi WNW 5.8 mph - N/A   Scattered Clouds
2:50 PM 50.0 °F - 46.4 °F 87% 29.86 in 6.2 mi WNW 6.9 mph - N/A   Partly Cloudy
3:00 PM 49 °F - 45 °F 79%  in - WNW 8.1 mph - -  
3:20 PM 50.0 °F - 46.4 °F 87% 29.86 in 6.2 mi WNW 6.9 mph - N/A   Partly Cloudy
3:50 PM 50.0 °F - 46.4 °F 87% 29.83 in 6.2 mi NW 6.9 mph - N/A   Partly Cloudy
4:00 PM 50 °F - 45 °F 78%  in - NW 8.1 mph - -  
4:20 PM 50.0 °F - 46.4 °F 87% 29.83 in 6.2 mi NW 8.1 mph - N/A   Partly Cloudy
4:50 PM 51.8 °F - 46.4 °F 82% 29.83 in 6.2 mi NW 8.1 mph - N/A   Partly Cloudy
5:00 PM 52 °F - 46 °F 75%  in - NNW 8.1 mph - -  
5:20 PM 53.6 °F - 46.4 °F 77% 29.80 in 6.2 mi North 8.1 mph - N/A   Partly Cloudy
6:00 PM 53 °F - 46 °F 68%  in - NE 8.1 mph - -  
6:20 PM 53.6 °F - 46.4 °F 77% 29.80 in 6.2 mi NNE 6.9 mph - N/A   Partly Cloudy
6:50 PM 51.8 °F - 46.4 °F 82% 29.80 in 6.2 mi NNE 6.9 mph - N/A   Partly Cloudy
7:00 PM 51 °F - 46 °F 76%  in - NE 8.1 mph - -  
7:20 PM 51.8 °F - 44.6 °F 76% 29.80 in 6.2 mi NNE 5.8 mph - N/A   Partly Cloudy
7:50 PM 51.8 °F - 44.6 °F 76% 29.80 in - NNE 6.9 mph - N/A   Clear
8:00 PM 50 °F - 44 °F 73%  in - NE 6.9 mph - -  
8:20 PM 50.0 °F - 44.6 °F 82% 29.80 in - NNE 5.8 mph - N/A   Clear
8:50 PM 50.0 °F - 44.6 °F 82% 29.80 in - NNE 5.8 mph - N/A   Clear
9:00 PM 49 °F - 44 °F 79%  in - NNE 6.9 mph - -  
9:20 PM 50.0 °F - 44.6 °F 82% 29.80 in - NNE 6.9 mph - N/A   Clear
9:50 PM 48.2 °F - 44.6 °F 87% 29.80 in - NNE 8.1 mph - N/A   Clear
10:00 PM 48 °F - 44 °F 81%  in - NE 8.1 mph - -  
10:20 PM 48.2 °F - 44.6 °F 87% 29.80 in - NNE 8.1 mph - N/A   Clear
10:50 PM 46.4 °F 43.5 °F 42.8 °F 87% 29.80 in - ENE 5.8 mph - N/A   Clear
11:00 PM 46 °F - 42 °F 83%  in - ENE 5.8 mph - -  
11:50 PM 46.4 °F 42.9 °F 44.6 °F 93% 29.77 in - ENE 6.9 mph - N/A   Clear